Voltar ao catálogo

ERS 2 DEB

AtivoSSO
NORAD 31137·DEBRIS·🇪🇺 EU

Lançado Apr 21, 1995 de Guiana Space Centre

Loading…

Próximas Passagens (próximas 24 horas)

TLE

AtualizadoSource: Space-Track

Época: Sep 14, 2026, 12:34 UTC

1 31137U 95021D   26257.52420830  .00001297  00000-0  32282-3 0  9997
2 31137  98.6406 276.6519 0004620 139.5537  13.7419 14.53445489185276

Acompanhe ERS 2 DEB em tempo real com AllMySat

Download on the App Store